Newport News, VA

5:45 AM EST on January 18, 2018 (GMT -0500)
Newport News-Williamsburg International

Weather History for KPHF - August, 2014

Change the Weather History Date:

Saturday, August 16, 2014

  Actual Average Record
Temperature  
Mean Temperature 80 °F -  
Max Temperature 90 °F 87 °F 98 °F (1954)
Min Temperature 71 °F 68 °F 58 °F (1976)
Cooling Degree Days 15    
Growing Degree Days 30 (Base 50)    
Moisture  
Dew Point 67 °F    
Average Humidity 67    
Maximum Humidity 84    
Minimum Humidity 49    
Precipitation  
Precipitation 0.00 in - - ()
Sea Level Pressure  
Sea Level Pressure 29.99 in    
Wind  
Wind Speed 5 mph (SW)    
Max Wind Speed 13 mph    
Max Gust Speed -    
Visibility 10 miles    
Events Rain    
Averages and records for this station are not official NWS values.
T = Trace of Precipitation, MM = Missing Value Source: NWS Daily Summary

Daily Weather History Graph

Daily Weather History Graph

Search for Another Location

Airport or City:

Trip Planner

Search our weather history database for the weather conditions in past years. The results will help you decide how hot, cold, wet, or windy it might be!

Date:

Astronomy

Aug. 16, 2014 Rise Set
Actual Time 6:23 AM EDT 7:56 PM EDT
Civil Twilight 5:55 AM EDT 8:23 PM EDT
Nautical Twilight 5:22 AM EDT 8:57 PM EDT
Astronomical Twilight 4:47 AM EDT 9:31 PM EDT
Moon 11:48 PM EDT (8/16) 12:57 PM EDT (8/16)
Length of Visible Light 14h 28m
Length of Day
13h 33m
Waning Gibbous, 59% of the Moon is Illuminated
Aug 16
Waning Gibbous
Aug 17
Last Quarter
Aug 25
New
Sep 2
First Quarter
Sep 8
Full

Hourly Weather History & Observations

Time (EDT) Temp. Heat Index Dew Point Humidity Pressure Visibility Wind Dir Wind Speed Gust Speed Precip Events Conditions
1:54 AM 75.9 °F - 64.0 °F 67% 29.98 in 10.0 mi South 4.6 mph - N/A   Clear
2:54 AM 73.9 °F - 66.0 °F 76% 29.97 in 10.0 mi South 5.8 mph - 0.00 in Rain Light Rain
3:54 AM 73.0 °F - 66.0 °F 79% 29.96 in 10.0 mi SW 4.6 mph - 0.00 in   Overcast
4:54 AM 73.9 °F - 66.9 °F 79% 29.97 in 10.0 mi WSW 5.8 mph - N/A   Overcast
5:54 AM 73.0 °F - 66.0 °F 79% 29.99 in 10.0 mi WSW 3.5 mph - N/A   Partly Cloudy
6:41 AM 73.0 °F - 66.0 °F 79% 29.99 in 10.0 mi West 4.6 mph - N/A   Mostly Cloudy
6:54 AM 72.0 °F - 66.0 °F 81% 29.99 in 10.0 mi Calm Calm - N/A   Mostly Cloudy
7:06 AM 71.1 °F - 66.0 °F 84% 30.00 in 10.0 mi Calm Calm - N/A   Scattered Clouds
7:54 AM 75.0 °F - 66.9 °F 76% 30.01 in 10.0 mi North 3.5 mph - N/A   Clear
8:54 AM 78.1 °F - 66.9 °F 68% 30.01 in 10.0 mi Calm Calm - N/A   Clear
9:54 AM 80.1 °F 82.9 °F 69.1 °F 69% 30.02 in 10.0 mi SSW 4.6 mph - N/A   Partly Cloudy
10:54 AM 82.9 °F 85.8 °F 68.0 °F 60% 30.02 in 10.0 mi Calm Calm - N/A   Partly Cloudy
11:54 AM 82.9 °F 87.0 °F 70.0 °F 65% 30.02 in 10.0 mi SW 8.1 mph - N/A   Scattered Clouds
12:54 PM 84.0 °F 87.0 °F 68.0 °F 58% 30.01 in 10.0 mi Variable 5.8 mph - N/A   Clear
1:54 PM 87.1 °F 90.6 °F 68.0 °F 53% 30.00 in 10.0 mi SW 11.5 mph - N/A   Partly Cloudy
2:54 PM 88.0 °F 90.7 °F 66.9 °F 49% 29.99 in 10.0 mi WSW 12.7 mph - N/A   Clear
3:54 PM 89.1 °F 92.9 °F 68.0 °F 50% 29.97 in 10.0 mi SW 11.5 mph - N/A   Partly Cloudy
4:54 PM 88.0 °F 91.4 °F 68.0 °F 51% 29.96 in 10.0 mi SW 11.5 mph - N/A   Scattered Clouds
5:54 PM 88.0 °F 91.4 °F 68.0 °F 51% 29.95 in 10.0 mi SSW 10.4 mph - N/A   Partly Cloudy
6:54 PM 86.0 °F 88.8 °F 66.9 °F 53% 29.95 in 10.0 mi SW 10.4 mph - N/A   Clear
7:54 PM 82.9 °F 85.8 °F 68.0 °F 60% 29.96 in 10.0 mi SW 8.1 mph - N/A   Clear
8:54 PM 81.0 °F 83.8 °F 68.0 °F 65% 29.97 in 10.0 mi WSW 6.9 mph - N/A   Clear
9:54 PM 79.0 °F - 68.0 °F 69% 29.99 in 10.0 mi WSW 5.8 mph - N/A   Clear
10:54 PM 77.0 °F - 66.0 °F 69% 29.98 in 10.0 mi WSW 3.5 mph - N/A   Clear
11:54 PM 72.0 °F - 64.9 °F 78% 29.98 in 10.0 mi Calm Calm - N/A   Clear